Regional Weather Roundup
Issued by NWS Albany, NY

Home | Current Version | Previous Version | Graphics & Text | Print | Product List | Glossary On
Versions: 1 2 3 4 5 6 7 8 9 10 11 12 13 14 15 16 17 18 19 20 21 22 23 24 25 26 27 28 29 30 31 32 33 34 35 36 37 38 39 40 41 42 43 44 45 46 47 48 49 50
000
ASUS41 KALY 011710
RWRALY

NEW YORK STATE HOURLY WEATHER ROUNDUP
NATIONAL WEATHER SERVICE ALBANY NY
100 PM EDT TUE SEP 01 2015

NOTE: "FAIR" INDICATES FEW OR NO CLOUDS BELOW 12,000 FEET WITH NO
SIGNIFICANT WEATHER AND/OR NO OBSTRUCTIONS TO VISIBILITY.

NYZ032-033-038>043-046>054-057>066-NYZ062>081-011800-
EAST


CITY           SKY/WX    TMP DP  RH WIND       PRES   REMARKS
ALBANY         MOSUNNY   82  64  54 N6        30.05F
GLENS FALLS    SUNNY     81  59  47 NE6       30.05F
POUGHKEEPSIE   MOSUNNY   84  64  50 VRB3      30.05F
NEWBURGH       MOSUNNY   81  64  57 NE9       30.08F
MONTGOMERY     SUNNY     86  63  45 NE8       30.06F
WHITE PLAINS   MOSUNNY   84  63  49 VRB5      30.06S
ISLIP          MOSUNNY   83  63  50 SE7       30.03S
NEW YORK CITY  MOSUNNY   86  61  42 NE9       30.04F
CENTRAL PARK   PTSUNNY   84  62  47 E3        30.07F
$$

NYZ005>009-017-018-044>046-055-056-011800-
CENTRAL


CITY           SKY/WX    TMP DP  RH WIND       PRES   REMARKS
FULTON         CLOUDY    73  68  84 S7        30.09F HAZE
SYRACUSE       CLOUDY    75  68  78 SW7       30.08F HAZE
ROME           CLOUDY    73  67  81 W6        30.10F
ELMIRA         SUNNY     79  67  66 SW7       30.09F
BINGHAMTON     PTSUNNY   77  66  68 VRB5      30.12F
MONTICELLO     MOSUNNY   79  61  53 NE7       30.12F
$$

NYZ026>034-041>043-011800-
NORTH


CITY           SKY/WX    TMP DP  RH WIND       PRES   REMARKS
WATERTOWN      MOSUNNY   78  68  71 W14       30.06S HAZE
FORT DRUM      NOT AVBL
MASSENA        SUNNY     80  64  58 S5        30.04F
SARANAC LAKE   SUNNY     76  55  48 SW8       30.09S
PLATTSBURGH    SUNNY     75  65  70 SE8       30.04F
$$

NYZ001>004-010>016-019>021-011800-
WEST


CITY           SKY/WX    TMP DP  RH WIND       PRES   REMARKS
NIAGARA FALLS  MOSUNNY   81  65  58 W9        30.07F
BUFFALO        MOSUNNY   79  66  64 W12       30.09F
DUNKIRK        SUNNY     79  65  62 W9        30.10F
JAMESTOWN      PTSUNNY   75  64  69 W3        30.15S
WELLSVILLE     SUNNY     79  60  52 VRB3      30.17F
ROCHESTER      MOSUNNY   80  65  59 SW8       30.08F
PENN YAN       SUNNY     80  65  59 CALM      30.11F
$$

             KEY
       WCI = WIND CHILL INDEX
       VSB = VISIBILITY
       HX  = HEAT INDEX
$$



USA.gov is the U.S. government's official web portal to all federal, state and local government web resources and services.